| time (UTC) | temp F | wind direction | speed MPH | gust MPH | rain 1hr in | rain 24hr in | rain mn in | humidity % | barometer mb |
| 20260506230011 | 58 | 269 | 4.0 | 9.0 | 0.04 | 0.59 | 0.59 | 96 | 1002.3 |
| 20260506224509 | 58 | 257 | 1.0 | 4.0 | 0.06 | 0.62 | 0.57 | 96 | 1002.0 |
| 20260506223007 | 58 | 232 | 0.0 | 5.0 | 0.07 | 0.61 | 0.56 | 96 | 1002.2 |
| 20260506221506 | 58 | 249 | 1.0 | 4.0 | 0.10 | 0.60 | 0.56 | 96 | 1002.4 |
| 20260506220004 | 58 | 146 | 0.0 | 4.0 | 0.14 | 0.59 | 0.55 | 96 | 1002.5 |
| 20260506214503 | 58 | 242 | 0.0 | 2.0 | 0.19 | 0.59 | 0.52 | 95 | 1002.6 |
| 20260506213140 | 58 | 242 | 0.0 | 2.0 | 0.21 | 0.56 | 0.50 | 95 | 1002.8 |
| 20260506211623 | 58 | 242 | 1.0 | 3.0 | 0.17 | 0.53 | 0.46 | 95 | 1003.0 |
| 20260506204559 | 59 | 250 | 2.0 | 8.0 | 0.09 | 0.41 | 0.34 | 95 | 1003.3 |
| 20260506203054 | 59 | 147 | 0.0 | 3.0 | 0.07 | 0.36 | 0.28 | 95 | 1003.4 |
| 20260506201601 | 59 | 209 | 2.0 | 6.0 | 0.09 | 0.36 | 0.28 | 95 | 1003.6 |
| 20260506200059 | 59 | 205 | 0.0 | 7.0 | 0.08 | 0.34 | 0.27 | 95 | 1003.6 |
| 20260506194603 | 59 | 183 | 3.0 | 7.0 | 0.09 | 0.32 | 0.25 | 95 | 1003.8 |
| 20260506193050 | 59 | 205 | 1.0 | 4.0 | 0.08 | 0.28 | 0.22 | 95 | 1003.9 |
| 20260506191551 | 59 | 219 | 0.0 | 7.0 | 0.08 | 0.27 | 0.20 | 95 | 1004.1 |
| 20260506190047 | 59 | 219 | 1.0 | 4.0 | 0.09 | 0.25 | 0.18 | 95 | 1004.1 |
| 20260506184553 | 59 | 290 | 0.0 | 2.0 | 0.10 | 0.23 | 0.16 | 95 | 1004.3 |
| 20260506183058 | 59 | 290 | 0.0 | 1.0 | 0.11 | 0.21 | 0.14 | 95 | 1004.4 |
| 20260506181544 | 59 | 290 | 0.0 | 2.0 | 0.10 | 0.19 | 0.12 | 94 | 1004.7 |
| 20260506180048 | 59 | 292 | 0.0 | 2.0 | 0.08 | 0.16 | 0.09 | 94 | 1004.8 |
| 20260506174544 | 59 | 292 | 0.0 | 1.0 | 0.05 | 0.13 | 0.06 | 94 | 1005.1 |
| 20260506173049 | 60 | 292 | 0.0 | 2.0 | 0.02 | 0.10 | 0.03 | 92 | 1005.1 |
| 20260506171542 | 60 | 292 | 0.0 | 1.0 | 0.02 | 0.09 | 0.02 | 91 | 1004.9 |
| 20260506170100 | 61 | 292 | 0.0 | 0.0 | 0.01 | 0.08 | 0.01 | 87 | 1005.0 |
| 20260506164538 | 61 | 292 | 0.0 | 2.0 | 0.01 | 0.08 | 0.01 | 84 | 1005.1 |
| 20260506163039 | 61 | 292 | 0.0 | 3.0 | 0.01 | 0.08 | 0.01 | 86 | 1005.2 |
| 20260506161534 | 60 | 254 | 0.0 | 3.0 | 0.00 | 0.07 | 0.00 | 88 | 1005.6 |
| 20260506160034 | 60 | 142 | 0.0 | 3.0 | 0.00 | 0.07 | 0.00 | 86 | 1006.4 |
| 20260506154533 | 60 | 161 | 2.0 | 6.0 | 0.00 | 0.07 | 0.00 | 84 | 1006.5 |
| 20260506153029 | 61 | 250 | 0.0 | 3.0 | 0.00 | 0.07 | 0.00 | 84 | 1006.7 |
| 20260506151532 | 60 | 248 | 0.0 | 6.0 | 0.00 | 0.07 | 0.00 | 83 | 1006.6 |
| 20260506150028 | 60 | 248 | 0.0 | 5.0 | 0.00 | 0.07 | 0.00 | 83 | 1006.6 |
| 20260506144527 | 60 | 242 | 0.0 | 7.0 | 0.00 | 0.07 | 0.00 | 83 | 1006.7 |
| 20260506143032 | 60 | 156 | 1.0 | 7.0 | 0.00 | 0.07 | 0.00 | 82 | 1006.6 |
| 20260506141526 | 60 | 231 | 2.0 | 5.0 | 0.00 | 0.07 | 0.00 | 82 | 1006.6 |
| 20260506140026 | 60 | 197 | 4.0 | 6.0 | 0.00 | 0.07 | 0.00 | 83 | 1006.5 |
| 20260506134525 | 60 | 194 | 2.0 | 5.0 | 0.00 | 0.07 | 0.00 | 82 | 1006.8 |
| 20260506133024 | 60 | 153 | 1.0 | 5.0 | 0.00 | 0.07 | 0.00 | 82 | 1006.9 |
| 20260506131528 | 59 | 194 | 1.0 | 5.0 | 0.00 | 0.07 | 0.00 | 82 | 1007.0 |
| 20260506130022 | 59 | 211 | 0.0 | 3.0 | 0.00 | 0.07 | 0.00 | 84 | 1006.9 |
| 20260506124523 | 60 | 252 | 0.0 | 0.0 | 0.00 | 0.07 | 0.00 | 84 | 1007.0 |
| 20260506123027 | 59 | 251 | 0.0 | 2.0 | 0.00 | 0.07 | 0.00 | 87 | 1006.9 |
| 20260506121523 | 59 | 251 | 0.0 | 5.0 | 0.00 | 0.07 | 0.00 | 85 | 1007.1 |
| 20260506120015 | 57 | 249 | 0.0 | 3.0 | 0.00 | 0.07 | 0.00 | 90 | 1007.3 |
| 20260506114514 | 55 | 270 | 0.0 | 3.0 | 0.00 | 0.07 | 0.00 | 95 | 1007.3 |
| 20260506113025 | 54 | 271 | 0.0 | 1.0 | 0.00 | 0.07 | 0.00 | 96 | 1007.4 |
| 20260506111514 | 54 | 271 | 0.0 | 2.0 | 0.00 | 0.07 | 0.00 | 95 | 1007.4 |
| 20260506110014 | 53 | 271 | 0.0 | 2.0 | 0.00 | 0.07 | 0.00 | 95 | 1007.3 |
| 20260506104512 | 53 | 271 | 0.0 | 1.0 | 0.00 | 0.07 | 0.00 | 95 | 1007.5 |
| 20260506103011 | 53 | 271 | 0.0 | 2.0 | 0.00 | 0.07 | 0.00 | 95 | 1007.3 |
| 20260506101509 | 52 | 271 | 0.0 | 2.0 | 0.00 | 0.07 | 0.00 | 95 | 1007.2 |
| 20260506100009 | 53 | 271 | 0.0 | 1.0 | 0.00 | 0.07 | 0.00 | 95 | 1007.0 |
| 20260506094506 | 53 | 230 | 1.0 | 2.0 | 0.00 | 0.07 | 0.00 | 95 | 1006.9 |
| 20260506093004 | 53 | 230 | 0.0 | 2.0 | 0.00 | 0.07 | 0.00 | 95 | 1006.8 |
| 20260506091509 | 54 | 230 | 0.0 | 0.0 | 0.00 | 0.07 | 0.00 | 95 | 1006.9 |
| 20260506090004 | 54 | 230 | 0.0 | 0.0 | 0.00 | 0.07 | 0.00 | 95 | 1007.1 |
| 20260506084616 | 54 | 230 | 0.0 | 2.0 | 0.00 | 0.07 | 0.00 | 94 | 1007.0 |
| 20260506083100 | 55 | 195 | 0.0 | 1.0 | 0.00 | 0.07 | 0.00 | 94 | 1006.9 |
| 20260506081604 | 55 | 196 | 0.0 | 2.0 | 0.00 | 0.07 | 0.00 | 94 | 1006.9 |
| 20260506073100 | 56 | 250 | 0.0 | 1.0 | 0.00 | 0.07 | 0.00 | 92 | 1006.8 |
| 20260506071555 | 57 | 250 | 0.0 | 1.0 | 0.00 | 0.07 | 0.00 | 91 | 1006.6 |
| 20260506061557 | 56 | 271 | 0.0 | 2.0 | 0.00 | 0.07 | 0.00 | 94 | 1006.5 |
| 20260506043041 | 56 | 276 | 0.0 | 0.0 | 0.00 | 0.07 | 0.00 | 94 | 1006.4 |
| 20260506041536 | 56 | 276 | 0.0 | 0.0 | 0.00 | 0.07 | 0.00 | 94 | 1006.8 |
| 20260506040033 | 56 | 276 | 0.0 | 0.0 | 0.00 | 0.07 | 0.00 | 93 | 1006.7 |
| 20260506034535 | 56 | 276 | 0.0 | 0.0 | 0.00 | 0.07 | 0.07 | 93 | 1006.7 |
| 20260506033035 | 57 | 276 | 0.0 | 0.0 | 0.00 | 0.07 | 0.07 | 93 | 1006.9 |
| 20260506031543 | 57 | 276 | 0.0 | 3.0 | 0.00 | 0.07 | 0.07 | 92 | 1006.8 |
| 20260506030031 | 57 | 276 | 0.0 | 2.0 | 0.00 | 0.07 | 0.07 | 91 | 1006.7 |
| 20260506024540 | 58 | 224 | 0.0 | 2.0 | 0.00 | 0.07 | 0.07 | 89 | 1006.7 |
| 20260506023030 | 59 | 224 | 0.0 | 0.0 | 0.00 | 0.07 | 0.07 | 87 | 1006.7 |
| 20260506021532 | 59 | 224 | 0.0 | 0.0 | 0.00 | 0.07 | 0.07 | 86 | 1006.5 |
| 20260506020030 | 60 | 224 | 0.0 | 0.0 | 0.00 | 0.07 | 0.07 | 84 | 1006.4 |
| 20260506014531 | 60 | 225 | 1.0 | 5.0 | 0.00 | 0.07 | 0.07 | 84 | 1006.7 |
| 20260506013028 | 60 | 220 | 1.0 | 5.0 | 0.00 | 0.07 | 0.07 | 86 | 1006.8 |
| 20260506011534 | 60 | 144 | 2.0 | 4.0 | 0.00 | 0.07 | 0.07 | 84 | 1006.3 |
| 20260506010028 | 61 | 161 | 0.0 | 4.0 | 0.00 | 0.07 | 0.07 | 81 | 1006.1 |
| 20260506004527 | 62 | 263 | 0.0 | 3.0 | 0.00 | 0.07 | 0.07 | 77 | 1006.2 |
| 20260506003027 | 60 | 169 | 2.0 | 5.0 | 0.00 | 0.07 | 0.07 | 81 | 1005.9 |
| 20260506001526 | 61 | 229 | 0.0 | 4.0 | 0.00 | 0.07 | 0.07 | 83 | 1005.7 |
| 20260506000030 | 61 | 221 | 0.0 | 3.0 | 0.00 | 0.07 | 0.07 | 83 | 1005.2 |
| 20260505234525 | 61 | 136 | 3.0 | 5.0 | 0.00 | 0.07 | 0.07 | 81 | 1004.7 |
| 20260505233025 | 61 | 205 | 2.0 | 11.0 | 0.00 | 0.07 | 0.07 | 80 | 1004.6 |
| 20260505231525 | 60 | 292 | 1.0 | 6.0 | 0.00 | 0.07 | 0.07 | 85 | 1004.3 |